Location: Unspecified
(42.0334°N, 93.6656°W)
Time: 08:42:36
(UTC-05:00)

Amateur Radio Satellites - All Passes

Search period start: 27 May 2017 08:12
Search period end: 28 May 2017 08:12
Location: Unspecified, 42.0334°N, 93.6656°W

Satellite Date Start Highest point End Downlink Frequencies (MHz)
Time Altitude Azimuth
CUTE 1.7 + AOD 2 27 May 08:15:35 08:19:35 38° 97° (E) 08:23:33 437.475
CUTE-I 27 May 08:15:49 08:20:59 51° 289° (WNW) 08:26:07 437.470
SO-50 27 May 08:18:28 08:22:43 41° 243° (WSW) 08:26:58 436.795
AAUSAT CUBESAT 2 27 May 08:27:01 08:29:28 15° 91° (E) 08:31:54 437.432
M-CUBED/EXP-1 PRIME 27 May 08:32:12 08:36:25 73° 70° (ENE) 08:40:20 437.505
XW-2D 27 May 08:39:01 08:41:13 15° 295° (WNW) 08:43:23 145.860 - 145.880
ZACube-1 27 May 08:45:52 08:48:31 15° 91° (E) 08:51:10 437.345
XW-2B 27 May 08:47:25 08:49:07 13° 296° (WNW) 08:50:48 145.730 - 145.750
NUDT-PHONESAT 27 May 08:56:38 08:58:08 12° 296° (WNW) 08:59:37 437.300
CUBEBUG 2 27 May 08:59:49 09:04:23 60° 100° (E) 09:09:02 437.445
NO-84 27 May 09:03:05 09:07:26 68° 136° (SE) 09:11:42 435.350 FM
SEEDS 27 May 09:03:25 09:07:39 87° 96° (E) 09:11:51 437.485
UWE-3 27 May 09:08:50 09:13:16 45° 99° (E) 09:17:44 435.000/436.395/437.385
XW-2A 27 May 09:14:23 09:17:38 39° 287° (WNW) 09:20:51 145.665 - 145.685
STRAND 1 27 May 09:20:57 09:23:28 14° 270° (W) 09:25:58 437.568
Oscar 11 27 May 09:38:54 09:42:58 37° 97° (E) 09:47:00 .
TIGRISAT 27 May 09:41:57 09:45:30 26° 67° (ENE) 09:49:06 435.000
FO-29 27 May 09:43:11 09:47:47 34° 67° (ENE) 09:52:33 435.910
HO-68 27 May 09:44:31 09:51:24 49° 294° (WNW) 09:58:14 435.675
RS-15 27 May 09:51:31 10:02:47 39° 34° (NE) 10:13:35 29.354- 29.394
CUTE 1.7 + AOD 2 27 May 09:52:06 09:55:08 19° 294° (WNW) 09:58:09 437.475
AAUSAT CUBESAT 2 27 May 10:01:13 10:05:09 43° 288° (WNW) 10:09:03 437.432
AO-73 27 May 10:06:05 10:10:40 86° 281° (W) 10:15:14 145.935
PRISM 27 May 10:07:16 10:11:23 71° 75° (ENE) 10:15:30 437.425
EO-88 27 May 10:07:34 10:09:20 13° 91° (E) 10:11:05 145.990 - 145.960
UNISAT 6 27 May 10:13:06 10:17:18 61° 74° (ENE) 10:21:37 437.425
DELFI C3 27 May 10:13:54 10:17:05 23° 95° (E) 10:20:15 145.870
ZACube-1 27 May 10:20:38 10:25:06 55° 286° (WNW) 10:29:34 437.345
CUBEBUG 2 27 May 10:37:51 10:40:32 15° 296° (WNW) 10:43:14 437.445
NO-84 27 May 10:41:39 10:45:22 27° 333° (NNW) 10:48:56 435.350 FM
UWE-3 27 May 10:46:07 10:49:23 20° 295° (WNW) 10:52:41 435.000/436.395/437.385
Oscar 11 27 May 11:15:37 11:18:51 21° 294° (WNW) 11:22:04 .
AIST 2D 27 May 11:15:54 11:19:04 32° 72° (ENE) 11:22:17 435.315
TIGRISAT 27 May 11:18:25 11:22:06 28° 265° (W) 11:25:50 435.000
NANOSAT C BR1 27 May 11:18:26 11:21:25 19° 66° (ENE) 11:24:25 145.865
POLYITAN 1 27 May 11:23:18 11:26:39 24° 67° (ENE) 11:30:02 437.675
DUCHIFAT 1 27 May 11:28:26 11:31:39 22° 67° (ENE) 11:34:53 145.980
FO-29 27 May 11:28:34 11:32:58 28° 265° (W) 11:37:30 435.910
QB50P2 27 May 11:31:36 11:35:19 31° 69° (ENE) 11:39:03 145.880/145.840
ESTCUBE 1 27 May 11:38:17 11:40:43 14° 91° (E) 11:43:07 437.505/2401.250
EO-88 27 May 11:39:43 11:43:12 40° 287° (WNW) 11:46:40 145.990 - 145.960
BUGSAT 1 27 May 11:46:26 11:46:49 10° 61° (ENE) 11:47:14 437.445
DELFI C3 27 May 11:48:32 11:51:49 25° 291° (WNW) 11:55:04 145.870
UNISAT 6 27 May 11:52:51 11:54:27 12° 271° (W) 11:56:03 437.425
YUBILEINY 27 May 11:53:18 12:01:17 36° 70° (ENE) 12:09:12 435.215
RS-15 27 May 12:04:26 12:16:40 81° 241° (WSW) 12:28:15 29.354- 29.394
EO-79 27 May 12:07:55 12:12:04 74° 75° (ENE) 12:16:17 145.935-145.965
AO-85 27 May 12:16:53 12:18:52 13° 40° (NE) 12:20:53 145.980
LO-87 27 May 12:20:00 12:23:34 77° 102° (ESE) 12:27:07 145.935 - 145.965
NO-84 27 May 12:21:58 12:24:06 13° 354° (N) 12:26:09 435.350 FM
VELOX 1 27 May 12:30:53 12:32:48 13° 91° (E) 12:34:43 145.980
AIST 2D 27 May 12:50:24 12:52:24 14° 268° (W) 12:54:24 435.315
NANOSAT C BR1 27 May 12:53:01 12:56:52 37° 262° (W) 13:00:46 145.865
BEESAT 3 27 May 12:54:18 12:55:28 11° 37° (NE) 12:56:37 437.485
POLYITAN 1 27 May 12:58:39 13:02:18 29° 264° (W) 13:06:00 437.675
Gurwin Techsat 1B 27 May 12:59:04 13:02:39 19° 61° (ENE) 13:06:14 435.225
O/OREOS (USA 219) 27 May 12:59:46 13:02:42 17° 53° (NE) 13:05:38 437.305
DUCHIFAT 1 27 May 13:03:25 13:07:08 31° 263° (W) 13:10:53 145.980
QB50P2 27 May 13:07:52 13:11:08 22° 266° (W) 13:14:25 145.880/145.840
Oscar 19 27 May 13:12:57 13:17:43 38° 68° (ENE) 13:22:31 437.125/150
ESTCUBE 1 27 May 13:13:26 13:17:51 55° 287° (WNW) 13:22:14 437.505/2401.250
BUGSAT 1 27 May 13:17:36 13:21:36 71° 258° (WSW) 13:25:36 437.445
50 SAT 27 May 13:27:51 13:30:40 24° 96° (E) 13:33:29 437.505
YUBILEINY 27 May 13:49:53 13:58:21 52° 271° (W) 14:06:46 435.215
SPROUT 27 May 13:52:38 13:56:55 77° 285° (WNW) 14:01:11 437.525
AO-85 27 May 13:55:41 13:59:44 82° 239° (WSW) 14:04:01 145.980
NO-84 27 May 14:00:28 14:03:03 16° 15° (NNE) 14:05:31 435.350 FM
VELOX 1 27 May 14:05:18 14:09:37 59° 287° (WNW) 14:13:56 145.980
BEESAT 2 27 May 14:12:10 14:15:20 21° 45° (NE) 14:18:29 435.950
AO-7 27 May 14:13:09 14:19:40 27° 54° (NE) 14:26:12 .
ITAMSAT 1 27 May 14:18:58 14:21:41 15° 59° (ENE) 14:24:26 435.822/435.867
RS-15 27 May 14:19:24 14:27:01 20° 263° (W) 14:34:29 29.354- 29.394
UKube-1 27 May 14:28:10 14:32:25 57° 101° (E) 14:36:39 .
BEESAT 3 27 May 14:29:44 14:33:46 75° 56° (ENE) 14:37:44 437.485
Gurwin Techsat 1B 27 May 14:36:50 14:42:05 62° 259° (WSW) 14:47:22 435.225
DX 1 27 May 14:37:46 14:42:06 76° 285° (WNW) 14:46:25 434.975-435.025
O/OREOS (USA 219) 27 May 14:38:04 14:42:29 55° 252° (WSW) 14:46:51 437.305
Oscar 19 27 May 14:52:44 14:57:06 27° 265° (W) 15:01:29 437.125/150
50 SAT 27 May 15:00:59 15:03:23 18° 292° (WNW) 15:05:47 437.505
ITUPSAT 1 27 May 15:27:04 15:30:49 22° 94° (E) 15:34:31 437.325
MOZHAYETS 4 27 May 15:34:11 15:36:51 15° 91° (E) 15:39:30
NO-84 27 May 15:37:37 15:41:25 54° 37° (NE) 15:44:50 435.350 FM
BEESAT 2 27 May 15:49:25 15:53:16 42° 243° (WSW) 15:57:04 435.950
ITAMSAT 1 27 May 15:55:19 16:00:29 79° 256° (WSW) 16:05:41 435.822/435.867
BEESAT 27 May 15:59:17 16:03:55 47° 99° (E) 16:08:32 436.000
AO-7 27 May 16:03:22 16:11:38 76° 253° (WSW) 16:20:00 .
UKube-1 27 May 16:05:42 16:07:58 14° 298° (WNW) 16:10:14 .
ITUPSAT 1 27 May 17:04:16 17:08:46 41° 291° (WNW) 17:13:15 437.325
MOZHAYETS 4 27 May 17:09:47 17:14:21 56° 287° (WNW) 17:18:52
LilacSat-2 27 May 17:15:26 17:15:55 10° 63° (ENE) 17:16:23 437.200
NO-84 27 May 17:16:10 17:18:32 17° 236° (SW) 17:20:46 435.350 FM
BEESAT 27 May 17:37:53 17:41:21 20° 296° (WNW) 17:44:49 436.000
DOVE 4 27 May 17:39:51 17:44:05 39° 72° (ENE) 17:48:08 437.250
XW-2D 27 May 17:45:39 17:48:38 22° 68° (ENE) 17:51:38 145.860 - 145.880
XW-2B 27 May 17:53:23 17:56:33 26° 70° (ENE) 17:59:47 145.730 - 145.750
KKS-1 27 May 17:55:00 17:59:25 64° 102° (ESE) 18:03:49 437.445
CUBESAT XI-V 27 May 17:58:31 18:03:12 86° 103° (ESE) 18:07:49 437.345
CUTE-I 27 May 17:58:38 18:03:25 36° 68° (ENE) 18:08:14 437.470
NUDT-PHONESAT 27 May 18:00:53 18:03:55 24° 69° (ENE) 18:07:00 437.300
AO-7 27 May 18:01:41 18:05:42 14° 272° (W) 18:09:44 .
XW-2F 27 May 18:04:51 18:08:18 34° 71° (ENE) 18:11:47 145.980 - 146.000
XW-2C 27 May 18:06:41 18:10:13 37° 72° (ENE) 18:13:47 145.795 - 145.815
KAITUO 1B 27 May 18:10:35 18:13:58 32° 71° (ENE) 18:17:23 145.475/437.950
STARS 27 May 18:22:48 18:27:07 54° 100° (E) 18:31:26 437.465
PCSat 27 May 18:26:20 18:29:55 18° 105° (ESE) 18:33:30 145.827
HO-68 27 May 18:26:51 18:32:37 27° 59° (ENE) 18:38:24 435.675
LilacSat-2 27 May 18:45:49 18:49:37 65° 259° (W) 18:53:29 437.200
CUTE 1.7 + AOD 2 27 May 19:08:30 19:12:12 29° 69° (ENE) 19:15:56 437.475
DOVE 4 27 May 19:18:35 19:21:53 20° 266° (W) 19:25:06 437.250
AAUSAT CUBESAT 2 27 May 19:18:38 19:20:10 12° 62° (ENE) 19:21:41 437.432
XW-2D 27 May 19:19:27 19:22:41 26° 264° (W) 19:25:56 145.860 - 145.880
Tancredo 1 27 May 19:20:20 19:21:51 13° 131° (SE) 19:23:23 437.200
XW-2B 27 May 19:27:43 19:30:43 22° 266° (W) 19:33:45 145.730 - 145.750
KKS-1 27 May 19:33:16 19:35:26 14° 298° (WNW) 19:37:36 437.445
NUDT-PHONESAT 27 May 19:34:48 19:37:45 22° 265° (W) 19:40:45 437.300
CUBESAT XI-V 27 May 19:38:37 19:39:50 11° 300° (WNW) 19:41:03 437.345
CUTE-I 27 May 19:38:53 19:43:29 30° 264° (W) 19:48:06 437.470
XW-2F 27 May 19:40:03 19:42:32 17° 267° (W) 19:45:02 145.980 - 146.000
XW-2C 27 May 19:42:18 19:44:34 15° 268° (W) 19:46:51 145.795 - 145.815
ZACube-1 27 May 19:43:15 19:44:55 12° 61° (ENE) 19:46:37 437.345
XW-2A 27 May 19:45:29 19:48:49 64° 75° (ENE) 19:52:10 145.665 - 145.685
KAITUO 1B 27 May 19:45:32 19:48:03 17° 267° (W) 19:50:37 145.475/437.950
STRAND 1 27 May 19:49:23 19:53:28 23° 94° (E) 19:57:33 437.568
SEEDS 27 May 19:54:53 19:59:04 61° 75° (ENE) 20:03:17 437.485
CUBEBUG 2 27 May 19:58:21 20:02:21 48° 72° (ENE) 20:06:27 437.445
STARS 27 May 20:00:28 20:03:01 15° 297° (WNW) 20:05:34 437.465
ISS 27 May 20:02:03 20:04:43 23° 134° (SE) 20:07:22 437.550
UWE-3 27 May 20:06:18 20:10:07 35° 71° (ENE) 20:14:03 435.000/436.395/437.385
PCSat 27 May 20:07:22 20:12:44 65° 302° (WNW) 20:18:10 145.827
HO-68 27 May 20:12:42 20:19:48 64° 257° (WSW) 20:26:58 435.675
Oscar 11 27 May 20:33:58 20:37:45 30° 69° (ENE) 20:41:35 .
CUTE 1.7 + AOD 2 27 May 20:44:28 20:48:00 25° 266° (W) 20:51:33 437.475
AAUSAT CUBESAT 2 27 May 20:50:54 20:55:03 66° 259° (WSW) 20:59:14 437.432
Tancredo 1 27 May 20:54:11 20:57:14 67° 328° (NNW) 21:00:18 437.200
DELFI C3 27 May 21:00:24 21:02:47 16° 65° (ENE) 21:05:10 145.870
AO-73 27 May 21:01:35 21:05:47 75° 76° (ENE) 21:10:07 145.935
ZACube-1 27 May 21:16:24 21:20:36 67° 260° (W) 21:24:55 437.345
STRAND 1 27 May 21:27:57 21:32:48 43° 290° (WNW) 21:37:39 437.568
SEEDS 27 May 21:33:35 21:35:08 12° 271° (W) 21:36:41 437.485
CUBEBUG 2 27 May 21:37:03 21:39:17 14° 270° (W) 21:41:33 437.445
ISS 27 May 21:37:51 21:41:02 45° 332° (NNW) 21:44:14 437.550
UWE-3 27 May 21:43:39 21:46:42 20° 267° (W) 21:49:50 435.000/436.395/437.385
M-CUBED/EXP-1 PRIME 27 May 21:44:53 21:48:00 40° 105° (ESE) 21:51:05 437.505
PCSat 27 May 21:54:40 21:57:15 13° 323° (NW) 21:59:49 145.827
UNISAT 6 27 May 22:05:37 22:07:54 13° 90° (E) 22:10:10 437.425
Oscar 11 27 May 22:10:20 22:13:53 24° 266° (W) 22:17:28 .
EO-88 27 May 22:17:11 22:20:50 86° 74° (ENE) 22:24:32 145.990 - 145.960
Tancredo 1 27 May 22:31:15 22:33:26 18° 346° (NNW) 22:35:37 437.200
SO-50 27 May 22:32:27 22:36:56 56° 119° (ESE) 22:41:24 436.795
DELFI C3 27 May 22:33:24 22:37:12 43° 261° (W) 22:41:01 145.870
FO-29 27 May 22:34:11 22:40:10 36° 97° (E) 22:46:46 435.910
ESTCUBE 1 27 May 22:38:24 22:41:00 15° 63° (ENE) 22:43:35 437.505/2401.250
LO-87 27 May 22:56:30 22:59:38 30° 71° (ENE) 23:02:47 145.935 - 145.965
TIGRISAT 27 May 23:08:14 23:12:47 56° 100° (E) 23:17:23 435.000
ISS 27 May 23:15:53 23:18:08 17° 351° (N) 23:20:24 437.550
M-CUBED/EXP-1 PRIME 27 May 23:21:00 23:22:07 11° 301° (WNW) 23:23:14 437.505
PRISM 27 May 23:23:13 23:27:17 74° 285° (WNW) 23:31:19 437.425
VELOX 1 27 May 23:28:50 23:30:55 13° 62° (ENE) 23:33:00 145.980
UNISAT 6 27 May 23:40:24 23:44:58 63° 286° (WNW) 23:49:35 437.425
EO-79 27 May 23:54:08 23:55:40 12° 90° (E) 23:57:12 145.935-145.965
DX 1 28 May 00:01:31 00:02:03 10° 60° (ENE) 00:02:35 434.975-435.025
50 SAT 28 May 00:02:24 00:03:20 11° 64° (ENE) 00:04:16 437.505
Tancredo 1 28 May 00:08:16 00:10:04 14° 6° (N) 00:11:53 437.200
ESTCUBE 1 28 May 00:12:50 00:17:18 59° 259° (W) 00:21:49 437.505/2401.250
AIST 2D 28 May 00:13:20 00:16:42 38° 98° (E) 00:20:01 435.315
SO-50 28 May 00:14:14 00:17:43 21° 317° (NW) 00:21:11 436.795
FO-29 28 May 00:19:10 00:25:13 44° 291° (WNW) 00:31:57 435.910
RS-15 28 May 00:22:25 00:28:06 15° 94° (E) 00:33:50 29.354- 29.394
LO-87 28 May 00:30:56 00:33:09 16° 267° (W) 00:35:22 145.935 - 145.965
NANOSAT C BR1 28 May 00:36:33 00:40:22 31° 97° (E) 00:44:10 145.865
POLYITAN 1 28 May 00:42:18 00:46:21 40° 98° (E) 00:50:24 437.675
SPROUT 28 May 00:45:52 00:50:06 83° 77° (ENE) 00:54:22 437.525
TIGRISAT 28 May 00:46:10 00:49:01 17° 296° (WNW) 00:51:55 435.000
DUCHIFAT 1 28 May 00:46:23 00:50:19 36° 98° (E) 00:54:15 145.980
QB50P2 28 May 00:50:57 00:55:10 56° 101° (E) 00:59:22 145.880/145.840
ISS 28 May 00:53:14 00:55:34 18° 11° (N) 00:57:54 437.550
YUBILEINY 28 May 00:54:58 01:02:49 40° 86° (E) 01:10:44 435.215
BUGSAT 1 28 May 00:59:48 01:02:19 16° 92° (E) 01:04:52 437.445
VELOX 1 28 May 01:02:26 01:06:49 65° 258° (WSW) 01:11:13 145.980
UKube-1 28 May 01:22:40 01:26:50 50° 72° (ENE) 01:31:01 .
Oscar 19 28 May 01:26:02 01:28:02 12° 89° (E) 01:30:02 437.125/150
EO-79 28 May 01:27:36 01:31:48 61° 286° (WNW) 01:36:01 145.935-145.965
50 SAT 28 May 01:32:27 01:35:47 46° 260° (W) 01:39:07 437.505
DX 1 28 May 01:33:12 01:37:33 84° 253° (WSW) 01:41:55 434.975-435.025
Tancredo 1 28 May 01:43:40 01:46:31 33° 26° (NNE) 01:49:20 437.200
AIST 2D 28 May 01:47:43 01:49:33 14° 294° (WNW) 01:51:24 435.315
NANOSAT C BR1 28 May 02:12:34 02:15:55 23° 293° (WNW) 02:19:15 145.865
POLYITAN 1 28 May 02:18:51 02:21:50 19° 295° (WNW) 02:24:49 437.675
DUCHIFAT 1 28 May 02:22:38 02:25:44 20° 294° (WNW) 02:28:52 145.980
RS-15 28 May 02:26:08 02:38:02 67° 115° (ESE) 02:50:13 29.354- 29.394
QB50P2 28 May 02:28:13 02:30:29 14° 297° (WNW) 02:32:45 145.880/145.840
ISS 28 May 02:29:23 02:32:37 53° 30° (NNE) 02:35:50 437.550
BUGSAT 1 28 May 02:33:57 02:37:53 44° 288° (WNW) 02:41:51 437.445
ITUPSAT 1 28 May 02:34:06 02:38:06 28° 66° (ENE) 02:42:08 437.325
MOZHAYETS 4 28 May 02:36:40 02:39:28 16° 63° (ENE) 02:42:16
YUBILEINY 28 May 02:51:11 02:59:26 46° 286° (WNW) 03:07:50 435.215
Gurwin Techsat 1B 28 May 02:52:34 02:57:44 50° 100° (E) 03:02:53 435.225
UKube-1 28 May 03:00:45 03:03:08 15° 268° (W) 03:05:32 .
Oscar 19 28 May 03:02:46 03:07:57 80° 285° (WNW) 03:13:05 437.125/150
BEESAT 28 May 03:05:48 03:10:27 57° 72° (ENE) 03:15:08 436.000
PCSat 28 May 03:12:18 03:16:16 20° 43° (NE) 03:20:12 145.827
O/OREOS (USA 219) 28 May 03:13:10 03:15:58 16° 99° (E) 03:18:45 437.305
Tancredo 1 28 May 03:19:29 03:22:13 29° 223° (SW) 03:24:55 437.200
CUBESAT XI-V 28 May 03:29:02 03:29:47 10° 59° (ENE) 03:30:33 437.345
AO-7 28 May 04:04:48 04:12:20 36° 98° (E) 04:19:49 .
ISS 28 May 04:06:28 04:08:51 19° 227° (SW) 04:11:13 437.550
ITAMSAT 1 28 May 04:07:54 04:12:41 35° 97° (E) 04:17:26 435.822/435.867
AO-85 28 May 04:11:04 04:14:35 26° 115° (ESE) 04:17:58 145.980
ITUPSAT 1 28 May 04:11:31 04:15:48 33° 263° (W) 04:20:07 437.325
MOZHAYETS 4 28 May 04:11:37 04:16:09 56° 260° (W) 04:20:43
BEESAT 3 28 May 04:22:55 04:23:39 10° 108° (ESE) 04:24:22 437.485
Gurwin Techsat 1B 28 May 04:33:18 04:37:19 22° 297° (WNW) 04:41:20 435.225
RS-15 28 May 04:39:45 04:51:19 45° 320° (NW) 05:03:03 29.354- 29.394
Oscar 19 28 May 04:45:04 04:46:23 11° 303° (WNW) 04:47:43 437.125/150
BEESAT 28 May 04:45:46 04:48:35 15° 269° (W) 04:51:24 436.000
O/OREOS (USA 219) 28 May 04:50:26 04:54:55 51° 296° (WNW) 04:59:24 437.305
KKS-1 28 May 04:53:06 04:57:27 62° 73° (ENE) 05:01:50 437.445
PCSat 28 May 04:54:48 05:00:15 75° 243° (WSW) 05:05:39 145.827
CUBESAT XI-V 28 May 05:01:40 05:06:23 87° 77° (ENE) 05:11:07 437.345
STARS 28 May 05:19:30 05:23:43 50° 72° (ENE) 05:27:56 437.465
SO-50 28 May 05:25:18 05:26:13 11° 32° (NNE) 05:27:09 436.795
BEESAT 2 28 May 05:40:58 05:44:22 28° 114° (ESE) 05:47:49 435.950
ITAMSAT 1 28 May 05:47:33 05:52:01 30° 294° (WNW) 05:56:29 435.822/435.867
AO-85 28 May 05:51:14 05:54:52 30° 311° (NW) 05:58:24 145.980
BEESAT 3 28 May 05:56:41 06:00:37 70° 305° (NW) 06:04:38 437.485
AO-7 28 May 05:57:17 06:05:19 54° 296° (WNW) 06:13:21 .
CUTE-I 28 May 06:16:42 06:19:10 13° 89° (E) 06:21:38 437.470
LilacSat-2 28 May 06:20:09 06:22:01 13° 91° (E) 06:23:51 437.200
KKS-1 28 May 06:32:32 06:34:24 12° 270° (W) 06:36:16 437.445
XW-2D 28 May 06:51:05 06:54:30 29° 96° (E) 06:57:52 145.860 - 145.880
STARS 28 May 06:57:51 07:00:20 15° 268° (W) 07:02:49 437.465
RS-15 28 May 06:58:38 07:08:13 25° 353° (N) 07:17:42 29.354- 29.394
XW-2B 28 May 06:58:58 07:02:32 35° 97° (E) 07:06:04 145.730 - 145.750
SO-50 28 May 07:03:14 07:07:41 55° 53° (NE) 07:12:08 436.795
NUDT-PHONESAT 28 May 07:04:03 07:07:26 31° 96° (E) 07:10:48 437.300
STRAND 1 28 May 07:05:29 07:10:04 35° 68° (ENE) 07:14:40 437.568
XW-2F 28 May 07:10:11 07:13:55 47° 99° (E) 07:17:36 145.980 - 146.000
XW-2C 28 May 07:12:34 07:16:21 53° 100° (E) 07:20:06 145.795 - 145.815
KAITUO 1B 28 May 07:14:51 07:18:30 43° 99° (E) 07:22:06 145.475/437.950
DOVE 4 28 May 07:14:57 07:19:08 79° 283° (WNW) 07:23:26 437.250
BEESAT 2 28 May 07:18:34 07:22:04 28° 312° (NW) 07:25:36 435.950
BEESAT 3 28 May 07:38:08 07:38:58 10° 324° (NW) 07:39:47 437.485
HO-68 28 May 07:40:39 07:46:24 25° 93° (E) 07:52:06 435.675
CUBEBUG 2 28 May 07:50:36 07:51:55 11° 89° (E) 07:53:15 437.445
LilacSat-2 28 May 07:52:48 07:56:32 45° 287° (WNW) 08:00:13 437.200
AO-7 28 May 07:52:52 07:56:13 13° 318° (NW) 07:59:34 .
CUTE-I 28 May 07:54:26 07:59:48 78° 286° (WNW) 08:05:08 437.470
